Location: Kerb�bon
(47.7970°N, 3.3487°W)
Time: 12:39:39
(UTC+00:00)

Cosmos 1680 Rocket - Visible Passes

Search period start: 20 September 2021 00:00
Search period end: 30 September 2021 00:00
Orbit: 760 x 780 km, 74.1° (Epoch: 19 September)

Date Brightness Start Highest point End Pass type
(mag) Time Alt. Az. Time Alt. Az. Time Alt. Az.
20 Sep 5.0 20:01:28 10° N 20:05:16 20° NE 20:06:00 19° ENE visible
20 Sep 4.5 21:42:44 10° NNW 21:46:19 44° NNW 21:46:19 44° NNW visible
21 Sep 5.4 19:25:51 10° NNE 19:28:29 14° NE 19:30:22 12° ENE visible
21 Sep 3.9 21:06:24 10° NNW 21:10:41 55° NNE 21:10:41 55° NNE visible
21 Sep 6.1 22:49:39 10° NW 22:51:00 15° WNW 22:51:00 15° WNW visible
22 Sep 4.0 20:30:10 10° NNW 20:35:04 43° NE 20:35:04 43° NE visible
22 Sep 5.5 22:12:37 10° NW 22:15:23 24° WNW 22:15:23 24° WNW visible
23 Sep 4.5 19:54:04 10° N 19:58:39 29° NE 19:59:30 28° ENE visible
23 Sep 4.6 21:35:56 10° NNW 21:39:48 40° WNW 21:39:48 40° WNW visible
24 Sep 5.0 19:18:08 10° N 19:21:59 20° NE 19:23:56 17° ENE visible
24 Sep 3.7 20:59:26 10° NNW 21:04:16 70° WNW 21:04:16 70° WNW visible
25 Sep 5.4 18:42:29 10° NNE 18:45:13 14° NE 18:47:57 10° ENE visible
25 Sep 3.4 20:23:05 10° NNW 20:28:22 70° ENE 20:28:46 66° E visible
25 Sep 5.8 22:06:24 10° NW 22:09:06 18° W 22:09:06 18° W visible
26 Sep 3.9 19:46:51 10° NNW 19:51:55 44° ENE 19:53:19 36° E visible
26 Sep 5.1 21:29:20 10° NW 21:33:39 29° W 21:33:39 29° W visible
27 Sep 4.5 19:10:44 10° N 19:15:22 30° NE 19:17:55 20° E visible
27 Sep 4.3 20:52:38 10° NNW 20:57:40 46° WSW 20:58:16 44° SW visible
28 Sep 4.9 18:34:47 10° N 18:38:42 21° NE 18:42:36 10° E visible
28 Sep 3.6 20:16:08 10° NNW 20:21:25 74° WSW 20:22:56 47° S visible
28 Sep 6.3 22:01:43 10° W 22:02:32 10° W 22:03:16 10° W visible
29 Sep 3.4 19:39:46 10° NNW 19:45:04 71° ENE 19:47:41 30° SE visible
29 Sep 5.8 21:23:09 10° NW 21:26:34 18° W 21:28:02 16° WSW visible
